Frenchville, ME

4:57 PM EDT on September 22, 2017 (GMT -0400)
Northern Aroostook Regional

Weather History for KFVE - February, 2013

Change the Weather History Date:

Thursday, February 7, 2013

  Actual Average Record
Temperature  
Mean Temperature -11 °F 10 °F  
Max Temperature -5 °F 19 °F 42 °F (2005)
Min Temperature -17 °F 2 °F -17 °F (2013)
Degree Days  
Heating Degree Days 76    
Month to date heating degree days 443  
Since 1 July heating degree days 5550  
Cooling Degree Days 0    
Month to date cooling degree days 0  
Year to date cooling degree days 0  
Moisture  
Dew Point -22 °F    
Average Humidity 59    
Maximum Humidity 71    
Minimum Humidity 47    
Precipitation  
Precipitation T in 0.02 in 0.05 in (2009)
Month to date precipitation 0.02 0.14  
Year to date precipitation 1.00 1.90  
Sea Level Pressure  
Sea Level Pressure 30.42 in    
Wind  
Wind Speed 13 mph (NW)    
Max Wind Speed 30 mph    
Max Gust Speed 41 mph    
Visibility 10 miles    
Events      
T = Trace of Precipitation, MM = Missing Value Source: NWS Daily Summary

Daily Weather History Graph

Daily Weather History Graph

Search for Another Location

Airport or City:

Trip Planner

Search our weather history database for the weather conditions in past years. The results will help you decide how hot, cold, wet, or windy it might be!

Date:

Astronomy

Feb. 07, 2013 Rise Set
Actual Time 6:50 AM EST 4:45 PM EST
Civil Twilight 6:18 AM EST 5:17 PM EST
Nautical Twilight 5:41 AM EST 5:53 PM EST
Astronomical Twilight 5:06 AM EST 6:29 PM EST
Moon 4:33 AM EST (2/7) 1:59 PM EST (2/7)
Length of Visible Light 10h 59m
Length of Day
9h 54m
Waning Crescent, 9% of the Moon is Illuminated
Feb 7
Waning Crescent
Feb 10
New
Feb 17
First Quarter
Feb 25
Full
Mar 4
Last Quarter

Hourly Weather History & Observations

Time (EST) Temp. Windchill Dew Point Humidity Pressure Visibility Wind Dir Wind Speed Gust Speed Precip Events Conditions
12:53 AM -8.0 °F -31.0 °F -16.1 °F 68% 30.17 in 10.0 mi NW 17.3 mph 29.9 mph N/A   Clear
1:53 AM -9.9 °F -29.6 °F -18.0 °F 68% 30.21 in 10.0 mi NW 11.5 mph - N/A   Clear
2:53 AM -11.9 °F -33.0 °F -18.9 °F 71% 30.22 in 10.0 mi NW 12.7 mph - N/A   Clear
3:53 AM -13.0 °F -33.4 °F -22.0 °F 64% 30.25 in 10.0 mi NW 11.5 mph 19.6 mph N/A   Clear
4:53 AM -14.1 °F -39.6 °F -25.1 °F 58% 30.28 in 10.0 mi NW 18.4 mph 29.9 mph N/A   Clear
5:53 AM -16.1 °F -44.6 °F -26.0 °F 61% 30.31 in 10.0 mi NW 23.0 mph 35.7 mph N/A   Clear
6:53 AM -17.0 °F -45.2 °F -27.9 °F 58% 30.35 in 10.0 mi WNW 21.9 mph 36.8 mph 0.00 in   Clear
7:26 AM -16.6 °F -45.9 °F -27.4 °F 58% 30.28 in 6.0 mi WNW 24.2 mph 32.2 mph N/A   Haze
7:41 AM -16.6 °F -45.3 °F -25.6 °F 64% 30.28 in 10.0 mi NW 23.0 mph 31.1 mph N/A   Mostly Cloudy
7:53 AM -17.0 °F -45.8 °F -26.0 °F 64% 30.38 in 8.0 mi NW 23.0 mph 34.5 mph N/A   Scattered Clouds
8:53 AM -16.1 °F -42.8 °F -27.0 °F 58% 30.42 in 10.0 mi NW 19.6 mph 28.8 mph N/A   Clear
9:53 AM -14.1 °F -40.2 °F -26.0 °F 55% 30.44 in 10.0 mi NW 19.6 mph 28.8 mph N/A   Clear
10:53 AM -11.9 °F -36.1 °F -26.0 °F 50% 30.46 in 10.0 mi NNW 17.3 mph 27.6 mph N/A   Clear
11:53 AM -9.9 °F -33.5 °F -24.0 °F 50% 30.46 in 10.0 mi NNW 17.3 mph 24.2 mph N/A   Clear
12:53 PM -8.0 °F -25.0 °F -23.1 °F 48% 30.48 in 10.0 mi NW 9.2 mph - N/A   Clear
1:53 PM -5.1 °F -25.9 °F -20.9 °F 47% 30.48 in 10.0 mi NW 15.0 mph 20.7 mph N/A   Clear
2:53 PM -5.1 °F -22.5 °F -20.9 °F 47% 30.48 in 10.0 mi NW 10.4 mph 20.7 mph N/A   Clear
3:53 PM -5.1 °F -24.3 °F -20.9 °F 47% 30.50 in 10.0 mi WNW 12.7 mph - N/A   Clear
4:53 PM -7.1 °F -19.9 °F -20.9 °F 51% 30.52 in 10.0 mi NW 5.8 mph - N/A   Clear
5:53 PM -8.0 °F -22.5 °F -20.0 °F 56% 30.54 in 10.0 mi NW 6.9 mph - N/A   Clear
6:53 PM -9.0 °F -23.8 °F -20.0 °F 59% 30.56 in 10.0 mi NW 6.9 mph - N/A   Clear
7:53 PM -9.9 °F -24.9 °F -20.9 °F 59% 30.56 in 10.0 mi NW 6.9 mph - N/A   Clear
8:53 PM -11.0 °F - -20.0 °F 64% 30.57 in 10.0 mi Calm Calm - N/A   Clear
9:53 PM -9.9 °F -21.5 °F -18.9 °F 65% 30.58 in 10.0 mi WNW 4.6 mph - N/A   Clear
10:53 PM -11.0 °F -24.6 °F -18.0 °F 71% 30.57 in 10.0 mi NW 5.8 mph - N/A   Clear
11:53 PM -11.9 °F -27.3 °F -18.9 °F 71% 30.57 in 10.0 mi NNW 6.9 mph - N/A   Clear